User: anonymous   Login
Location: Kunchanapalle
(16.4623°N, 80.6176°E)
Time: 12:53:41
(UTC+00:00)
Language:

CZ-3A R/B - Orbit

View from above orbital plane
View from above orbital plane
View from above satellite
View from above satellite

Ground track
Ground track

The orbit data is extracted from the following two-line orbital elements,

1 37235U 10064B   20294.61881754 +.01295995 -45559-6 +50236-3 0  9992
2 37235 024.1758 012.4708 3636126 079.0748 319.0228 08.38729944125044
Epoch (UTC): 20 October 2020 14:51:05
Eccentricity: 0.3636126
inclination: 24.1758°
perigee height: 134 km
apogee height: 7575 km
right ascension of ascending node: 12.4708°
argument of perigee: 79.0748°
revolutions per day: 8.38729944
mean anomaly at epoch: 319.0228°
orbit number at epoch: 12504

The dashed part of the orbit path shows where the satellite is in the earth's shadow,  

DLR